Zurück zum Katalog

CZ-6A DEB

AktivSSO
NORAD 54543·DEBRIS·🇨🇳 China

Gestartet Nov 11, 2022 von Taiyuan Satellite Launch Center

Loading…

Nächste Überflüge (nächste 24 Stunden)

TLE

AktuellSource: Space-Track

Epoche: Sep 14, 2026, 03:53 UTC

1 54543U 22151KT  26257.16240932  .00001434  00000-0  33962-3 0  9999
2 54543  98.7282 336.2690 0110282  49.7375 311.3400 14.52073331202428

Verfolge CZ-6A DEB in Echtzeit mit AllMySat

Download on the App Store